INTELSAT 33E

Satellite information

Favourite Embed

Satellite Type and Status

PAYLOADIN ORBIT

Key statistics

Satellite INTELSAT 33E at a glance.

Uptime

3399

Days in orbit

Revolutions

≈ 1.0

Per day

Orbit

GEO

Geostationary Orbit

Inclination

1.1

Latest

Satellite identification and parameters

Extended collection of information and parameters for INTELSAT 33E.

Object identification

Identified? True

Debris? False

Object name: INTELSAT 33E

International designator: 2016-053B

Object number (NORAD): 41748

Object ID (CCSDS): 41748

Country: INTERNATIONAL TELECOMMUNICATIONS SATELLITE ORGANIZATION (INTELSAT) (ITSO)

Current information (Y/N): Y

RCS size: LARGE

Orbital parameters

Period: 1437.108 minutes

Inclination: 1.0954 deg

SMA: 42184.521 km

Apoapsis: 35912.453 km

Periapsis: 35700.319 km

RAAN: 87.079 deg

Eccentricy: 0.00251436

Argument of periapsis: 184.2557 deg

Mean anomaly: 160.5579 deg

Mean motion: 1.00201236 rev/day

Mean motion (dot): -0.0000034 rev/day2

B* drag term: 0.0 1/REarth

Two-line elements (TLE)

Creation date: Dec. 14, 2025, 3:07 a.m.

Reference frame: TEME

Reference center: EARTH

Epoch: Dec. 13, 2025, 3:42 p.m. UTC

TLE line 0: 0 INTELSAT 33E

TLE line 1: 1 41748U 16053B 25347.65425715 -.00000340 00000-0 00000-0 0 9993

TLE line 2: 2 41748 1.0954 87.0790 0025144 184.2557 160.5579 1.00201236 34380

Live tracking on map

Real-time ground track for satellite INTELSAT 33E.

In-orbit conjunctions

There are no conjunctions computed for INTELSAT 33E, at the moment. Check back to stay up to date, as we update our databases every day.

Go to all conjunctions

Associated space launch

Intelsat 33e and Intelsat 36 are communication satellites. Intelsat 33e will cover Europe, Africa, Asia and the Middle East. Intelsat 36 will cover Africa and South Asia. Both contain C-band transponders, Ku-band transponders and have an expected life span or about 15 years.

INTELSAT 33E was lifted into orbit during the mission ‘Ariane 5 ECA | Intelsat 33e & Intelsat 36’, on board a Ariane 5 ECA space rocket.

The launch took place on Aug. 24, 2016, 10:16 p.m. from Ariane Launch Area 3.

For more information about the launch, click the button.

Launch to space Ariane 5 ECA | Intelsat 33e & Intelsat 36
Ariane 5 ECA | Intelsat 33e & Intelsat 36

Agency: N/A

Status: Launch Successful

Launch date: Aug. 24, 2016, 10:16 p.m. UTC

Rocket: Ariane 5 ECA

Launch pad: Ariane Launch Area 3

Location: Guiana Space Centre, French Guiana

...

Latest news about this satellite

News about space launch
Intelsat 33e demise exposes vulnerabilities in the space domain

Intelsat 33e’s break-up in geostationary orbit highlights an emerging threat for the contested space domain, an executive at U.S.-based space-tracking company ExoAnalytic Solutions said Dec. 10 during the Spacepower Conference here. The post Intelsat 33e...

News about space launch
Intelsat 33e Breakup Sends Shockwaves

Space-tracking company ExoAnalytic Solutions has identified about 500 pieces of debris from Intelsat 33e’s recent breakup in geostationary orbit (GEO).

News about space launch
ExoAnalytic observes 500 pieces of debris from Intelsat 33e breakup

U.S.-based space-tracking company ExoAnalytic Solutions has identified about 500 pieces of debris from Intelsat 33e’s recent breakup in geostationary orbit.


Newsletter sign-up

Weekly statistics, charts and insights to help you stay on top of the space industry.